Tracking 22223 objects as of 26-Jan-2021
HD Live streaming from Space Station
objects crossing your sky now

TELSTAR 302

Track TELSTAR 302 now!
TELSTAR 302 is classified as:


NORAD ID: 15237
Int'l Code: 1984-093D
Perigee: 35,913.6 km
Apogee: 35,953.6 km
Inclination: 15.1 °
Period: 1,443.2 minutes
Semi major axis: 42304 km
RCS: 4.6276 m2 (large)
Launch date: August 30, 1984
Source: United States (US)
Launch site: AIR FORCE EASTERN TEST RANGE (AFETR)
aabbcc
Your satellite tracking list
Your tracking list is empty




NASA's NSSDC Master Catalog

Two Line Element Set (TLE):
1 15237U 84093D   21025.98197140  .00000072  00000-0  00000+0 0  9999
2 15237  15.1106   0.9586 0004734  44.1639 306.9672  0.99774906105085
Source of the keplerian elements: AFSPC